Weather History for Pasco, WA

Change the Weather History Date:

Sunday, April 14, 2013

  Actual Average Record
Temperature  
Mean Temperature 46 °F 52 °F  
Max Temperature 58 °F 67 °F 82 °F (1989)
Min Temperature 34 °F 38 °F 27 °F (2014)
Degree Days  
Heating Degree Days 19 12  
Month to date heating degree days 167 189  
Since 1 July heating degree days 4350 4650  
Cooling Degree Days 0 0  
Month to date cooling degree days 0 0  
Year to date cooling degree days 0 0  
Moisture  
Dew Point 30 °F    
Average Humidity 59    
Maximum Humidity 89    
Minimum Humidity 28    
Precipitation  
Precipitation 0.00 in 0.02 in 0.29 in (1975)
Month to date precipitation 0.35 0.33  
Year to date precipitation 1.06 3.20  
Snow  
Snow 0.00 in - - ()
Snow Depth 0.00 in    
Sea Level Pressure  
Sea Level Pressure 29.92 in    
Wind  
Wind Speed 10 mph (West)    
Max Wind Speed 20 mph    
Max Gust Speed 28 mph    
Visibility 10 miles    
Events      
T = Trace of Precipitation, MM = Missing Value Source: NWS Daily Summary

Daily Weather History Graph

Daily Weather History Graph

Search for Another Location

Airport:

Trip Planner

Search our weather history database for the weather conditions in past years. The results will help you decide how hot, cold, wet, or windy it might be!

Date:

Astronomy

Apr. 14, 2013 Rise Set
Actual Time 6:11 AM PDT 7:43 PM PDT
Civil Twilight 5:39 AM PDT 8:14 PM PDT
Nautical Twilight 5:01 AM PDT 8:52 PM PDT
Astronomical Twilight 4:20 AM PDT 9:34 PM PDT
Moon 8:41 AM PDT (4/14) No Moon Set
Length of Visible Light 14h 34m
Length of Day
13h 32m
Waxing Crescent, 18% of the Moon is Illuminated
Apr 14
Waxing Crescent
Apr 18
First Quarter
Apr 25
Full
May 2
Last Quarter
May 9
New

Hourly Weather History & Observations

Time (PDT) Temp. Windchill Dew Point Humidity Pressure Visibility Wind Dir Wind Speed Gust Speed Precip Events Conditions
12:53 AM 43.0 °F 37.2 °F 32.0 °F 65% 29.96 in 10.0 mi WSW 10.4 mph - N/A   Mostly Cloudy
1:53 AM 42.1 °F 33.9 °F 32.0 °F 67% 29.96 in 10.0 mi WSW 17.3 mph 25.3 mph N/A   Overcast
2:53 AM 42.1 °F 34.2 °F 32.0 °F 67% 29.96 in 10.0 mi WSW 16.1 mph - N/A   Overcast
3:53 AM 42.1 °F 34.5 °F 32.0 °F 67% 29.96 in 10.0 mi WSW 15.0 mph 24.2 mph N/A   Mostly Cloudy
4:53 AM 39.9 °F 33.4 °F 32.0 °F 73% 29.96 in 10.0 mi WSW 10.4 mph - N/A   Clear
5:53 AM 39.0 °F 32.8 °F 30.9 °F 73% 29.95 in 10.0 mi WSW 9.2 mph - N/A   Clear
6:53 AM 39.0 °F 33.4 °F 30.9 °F 73% 29.96 in 10.0 mi WSW 8.1 mph - N/A   Clear
7:53 AM 43.0 °F 37.2 °F 30.9 °F 62% 29.97 in 10.0 mi SW 10.4 mph - N/A   Clear
8:53 AM 46.9 °F - 30.0 °F 52% 29.96 in 10.0 mi WSW 8.1 mph - N/A   Clear
9:53 AM 48.9 °F - 28.9 °F 46% 29.95 in 10.0 mi Variable 4.6 mph - N/A   Clear
10:53 AM 51.1 °F - 25.0 °F 36% 29.95 in 10.0 mi Variable 3.5 mph - N/A   Partly Cloudy
11:53 AM 53.1 °F - 26.1 °F 35% 29.94 in 10.0 mi SE 4.6 mph - N/A   Clear
1:53 PM 57.0 °F - 24.1 °F 28% 29.89 in 10.0 mi SW 9.2 mph - N/A   Partly Cloudy
2:53 PM 55.9 °F - 27.0 °F 33% 29.88 in 10.0 mi North 5.8 mph - N/A   Mostly Cloudy
3:53 PM 55.9 °F - 24.1 °F 29% 29.87 in 10.0 mi Calm Calm - N/A   Clear
4:53 PM 53.1 °F - 27.0 °F 37% 29.86 in 10.0 mi Calm Calm - N/A   Mostly Cloudy
5:53 PM 52.0 °F - 30.0 °F 43% 29.86 in 10.0 mi NW 15.0 mph - N/A   Mostly Cloudy
6:53 PM 46.9 °F - 33.1 °F 59% 29.86 in 10.0 mi NNW 9.2 mph - N/A   Mostly Cloudy
7:53 PM 46.9 °F - 30.0 °F 52% 29.85 in 10.0 mi North 8.1 mph - N/A   Scattered Clouds
8:53 PM 45.0 °F 39.3 °F 30.0 °F 56% 29.88 in 10.0 mi East 11.5 mph - N/A   Clear
9:53 PM 39.9 °F - 32.0 °F 73% 29.89 in 10.0 mi Calm Calm - N/A   Overcast
10:53 PM 36.0 °F 32.1 °F 32.0 °F 86% 29.90 in 10.0 mi NNW 4.6 mph - N/A   Mostly Cloudy
11:53 PM 36.0 °F - 32.0 °F 86% 29.90 in 10.0 mi Calm Calm - N/A   Overcast